Waarnemingen

Advertentie
Mijn weer
Parkalompolo, Zweden (2072): temperatuur & dauwpunt: 11.01.2020 23:00:00 - 17.01.2020 23:00:00 (CET)Parkalompolo, Zweden (2072): windsnelheid & windstoten: 11.01.2020 23:00:00 - 17.01.2020 23:00:00 (CET)Parkalompolo, Zweden (2072): windrichting: 11.01.2020 23:00:00 - 17.01.2020 23:00:00 (CET)Parkalompolo, Zweden (2072): luchtdruk: 11.01.2020 23:00:00 - 17.01.2020 23:00:00 (CET)Parkalompolo, Zweden (2072): zicht: 11.01.2020 23:00:00 - 17.01.2020 23:00:00 (CET)Parkalompolo, Zweden (2072): neerslag: 11.01.2020 23:00:00 - 17.01.2020 23:00:00 (CET)
Datum & Tijd tt [°C] td [°C] ff [km/u] ff [kn] fx [km/u] fx [kn] dd ppp [hPa] vv [km] rr [mm]
17.01.2020 23:00:00 -10,1 -11,6 3 1 6 4 NO 1013,5 36 0,0
17.01.2020 22:00:00 -10,0 -11,5 4 2 8 4 NO 1014,0 8 0,0
17.01.2020 21:00:00 -9,5 -10,8 5 3 7 4 NO 1014,3 29 0,0
17.01.2020 20:00:00 -9,4 -10,6 2 1 6 3 NO 1014,5 19 0,0
17.01.2020 19:00:00 -9,4 -10,7 3 2 7 4 NO 1014,4 11 -
17.01.2020 18:00:00 -9,4 -10,7 4 2 8 4 NO 1014,3 20 0,0
17.01.2020 17:00:00 -9,6 -11,1 4 2 7 4 NO 1013,9 12 0,0
17.01.2020 16:00:00 -11,0 -12,6 2 1 6 3 NNO 1013,7 14 -
17.01.2020 15:00:00 -10,2 -11,7 4 2 8 5 NNO 1013,5 6 0,0
17.01.2020 14:00:00 -10,9 -12,1 4 2 6 4 NNO 1013,1 11 0,0
17.01.2020 13:00:00 -10,7 -12,3 3 1 6 4 N 1012,5 24 0,0
17.01.2020 12:00:00 -8,3 -9,8 3 2 7 4 N 1011,5 18 0,1
17.01.2020 11:00:00 -7,4 -8,8 5 3 10 6 N 1010,4 22 0,0
17.01.2020 10:00:00 -7,4 -8,6 5 3 9 5 N 1009,5 19 0,0
17.01.2020 09:00:00 -7,6 -9,0 3 2 8 4 N 1008,8 19 0,0
17.01.2020 08:00:00 -8,3 -9,5 4 2 6 4 N 1007,6 17 0,0
17.01.2020 07:00:00 -9,8 -11,1 0 0 4 2 N 1006,8 28 0,0
17.01.2020 06:00:00 -10,8 -12,3 3 2 5 3 NNW 1005,6 38 0,0
17.01.2020 05:00:00 -11,7 -13,3 2 1 4 2 NNW 1004,5 26 0,0
17.01.2020 04:00:00 -12,3 -13,9 0 0 3 2 N 1003,9 22 0,0
17.01.2020 03:00:00 -12,7 -14,4 0 0 3 2 N 1003,0 20 0,0
17.01.2020 02:00:00 -14,2 -16,6 0 0 2 1 N 1002,4 16 0,0
17.01.2020 01:00:00 -12,3 -14,2 0 0 1 1 N 1001,7 9 0,0
17.01.2020 00:00:00 -11,3 -12,9 0 0 2 1 N 1001,2 4,4 0,0
16.01.2020 23:00:00 -10,1 -11,6 0 0 3 2 N 1001,0 4,3 0,3
16.01.2020 22:00:00 -9,7 -11,0 0 0 5 3 N 1000,8 2,0 0,1
16.01.2020 21:00:00 -10,1 -11,6 0 0 6 3 N 1000,8 7 0,1
16.01.2020 20:00:00 -10,3 -11,8 0 0 5 3 N 1000,9 2,9 0,1
16.01.2020 19:00:00 -10,5 -12,0 3 1 6 3 ZO 1000,8 7 0,0
16.01.2020 18:00:00 -9,4 -10,9 3 2 8 5 ZO 1001,1 6 0,0
16.01.2020 17:00:00 -8,1 -9,3 3 2 7 4 ZO 1000,7 11 0,0
16.01.2020 16:00:00 -7,4 -8,6 3 2 7 4 ZZO 1001,1 3,7 0,0
16.01.2020 15:00:00 -6,8 -7,9 3 2 8 4 ZZO 1001,1 8 0,0
16.01.2020 14:00:00 -6,4 -7,5 3 1 7 4 ZO 1001,0 7 0,0
16.01.2020 13:00:00 -6,2 -7,3 2 1 6 4 ZO 1000,7 6 0,0
16.01.2020 12:00:00 -5,7 -6,6 2 1 6 4 ZZO 1000,2 5 0,0
16.01.2020 11:00:00 -6,3 -7,1 3 2 7 4 OZO 999,7 7 0,0
16.01.2020 10:00:00 -7,2 -8,3 0 0 1 1 N 999,5 4,6 0,0
16.01.2020 09:00:00 -7,1 -8,2 0 0 3 1 N 998,9 7 0,0
16.01.2020 08:00:00 -7,8 -8,7 0 0 4 2 N 998,1 7 0,0
16.01.2020 07:00:00 -9,1 -10,0 0 0 2 1 N 997,8 3,5 0,0
16.01.2020 06:00:00 -10,0 -11,1 0 0 4 2 N 997,3 1,9 0,0
16.01.2020 05:00:00 -10,0 -10,9 2 1 4 2 NNW 996,4 0,6 0,0
16.01.2020 04:00:00 -10,7 -12,0 0 0 4 2 N 995,7 1,0 0,0
16.01.2020 03:00:00 -12,2 -13,6 2 1 3 2 NW 994,9 23 0,0
16.01.2020 02:00:00 -13,7 -15,7 0 0 3 2 N 994,1 19 0,0
16.01.2020 01:00:00 -9,7 -10,9 3 1 6 3 N 992,7 20 0,0
16.01.2020 00:00:00 -10,6 -12,8 3 1 4 2 NNW 992,4 25 0,0
15.01.2020 23:00:00 -11,0 -13,2 0 0 7 4 N 991,7 32 0,0
15.01.2020 22:00:00 -11,4 -13,0 3 2 6 4 WZW 990,9 17 0,0
15.01.2020 21:00:00 -14,1 -17,2 0 0 6 3 N 989,9 35 0,0
15.01.2020 20:00:00 -10,5 -13,0 3 2 5 3 W 988,6 26 0,0
15.01.2020 19:00:00 -11,3 -14,2 0 0 6 4 N 987,4 25 0,0
15.01.2020 18:00:00 -10,6 -13,1 3 2 9 5 N 986,6 37 0,0
15.01.2020 17:00:00 -9,5 -11,7 4 2 9 5 N 985,8 36 0,0
15.01.2020 16:00:00 -9,7 -12,0 5 3 10 5 N 985,2 31 0,0
15.01.2020 15:00:00 -10,9 -13,2 3 2 9 5 N 985,2 23 0,0
15.01.2020 14:00:00 -13,4 -17,2 0 0 4 2 N 984,8 38 0,0
15.01.2020 13:00:00 -12,7 -15,9 0 0 4 2 N 984,2 38 0,0
15.01.2020 12:00:00 -11,6 -14,1 3 2 5 3 N 984,0 49 0,0
15.01.2020 11:00:00 -14,2 -17,7 0 0 2 1 N 984,1 33 0,0
15.01.2020 10:00:00 -14,5 -18,1 0 0 3 2 N 983,6 50 0,0
15.01.2020 09:00:00 -15,3 -18,7 0 0 3 1 N 983,1 50 0,0
15.01.2020 08:00:00 -15,9 -20,1 3 1 5 3 NNW 982,7 42 0,0
15.01.2020 07:00:00 -12,7 -16,2 0 0 6 3 N 982,6 49 0,0
15.01.2020 06:00:00 -10,4 -13,8 2 1 7 4 ZZW 981,9 50 0,0
15.01.2020 05:00:00 -9,3 -12,6 2 1 6 3 WNW 981,4 50 0,0
15.01.2020 04:00:00 -7,6 -10,4 3 1 9 5 W 980,8 50 0,0
15.01.2020 03:00:00 -6,2 -8,8 3 2 8 4 WZW 980,2 45 0,0
15.01.2020 02:00:00 -4,5 -7,1 3 2 8 4 ZW 979,6 50 0,0
15.01.2020 01:00:00 -2,6 -4,8 4 2 8 4 ZW 979,2 14 0,1
15.01.2020 00:00:00 -1,9 -4,1 4 2 8 5 ZZW 979,0 2,1 0,3
14.01.2020 23:00:00 -1,8 -4,3 3 2 8 5 Z 979,2 2,4 0,3
14.01.2020 22:00:00 -1,9 -4,4 4 2 10 5 ZZO 979,5 1,4 0,7
14.01.2020 21:00:00 -2,1 -4,6 5 3 12 6 ZZO 980,2 1,5 0,5
14.01.2020 20:00:00 -2,3 -4,5 6 4 17 9 ZO 981,3 1,3 0,9
14.01.2020 19:00:00 -3,1 -5,4 6 3 12 6 ZO 982,7 1,0 1,3
14.01.2020 18:00:00 -4,7 -7,3 4 2 11 6 ZO 984,7 0,9 1,0
14.01.2020 17:00:00 -5,5 -7,9 6 3 11 6 ZO 986,2 2,0 0,8
14.01.2020 16:00:00 -6,2 -8,8 5 3 9 5 ZO 987,7 1,9 0,2
14.01.2020 15:00:00 -7,9 -10,4 4 2 9 5 O 988,9 50 0,0
14.01.2020 14:00:00 -7,9 -10,1 5 3 10 5 ONO 989,8 50 0,0
14.01.2020 13:00:00 -9,1 -12,5 0 0 6 3 N 991,4 50 0,0
14.01.2020 12:00:00 -8,7 -10,6 4 2 6 3 NO 991,3 50 0,0
14.01.2020 11:00:00 -12,9 -15,6 0 0 4 2 N 992,6 50 0,0
14.01.2020 10:00:00 -10,4 -12,6 0 0 4 2 N 992,6 50 0,0
14.01.2020 09:00:00 -11,6 -14,1 0 0 6 4 N 993,4 50 0,0
14.01.2020 08:00:00 -13,4 -16,9 0 0 5 3 N 992,7 50 0,0
14.01.2020 07:00:00 -11,7 -14,9 4 2 8 4 ZZW 992,5 50 0,0
14.01.2020 06:00:00 -13,4 -15,5 0 0 8 5 N 992,3 50 0,0
14.01.2020 05:00:00 -12,8 -14,5 0 0 4 2 N 991,7 50 0,0
14.01.2020 04:00:00 -11,0 -13,0 3 1 9 5 ZZW 991,6 50 0,0
14.01.2020 03:00:00 -10,7 -12,6 3 1 5 3 ZZW 990,7 50 0,0
14.01.2020 02:00:00 -12,0 -13,9 2 1 5 3 ZZO 990,0 50 0,0
14.01.2020 01:00:00 -10,0 -12,0 4 2 8 4 ZZW 989,8 50 0,0
14.01.2020 00:00:00 -10,3 -11,9 5 3 9 5 ZZW 988,7 50 0,0
13.01.2020 23:00:00 -10,5 -12,2 6 3 9 5 ZZW 988,7 50 0,0
13.01.2020 22:00:00 -11,3 -13,3 3 2 6 3 Z 988,3 50 0,0
13.01.2020 21:00:00 -11,8 -13,5 3 2 4 2 Z 987,8 50 0,0
13.01.2020 20:00:00 -11,1 -13,7 0 0 5 3 N 987,3 50 0,0
13.01.2020 19:00:00 -9,6 -11,6 3 2 7 4 Z 986,9 50 0,0
13.01.2020 18:00:00 -11,8 -14,4 0 0 6 4 N 986,9 50 0,0
13.01.2020 17:00:00 -10,4 -12,6 5 3 7 4 ZZW 986,7 50 0,0
13.01.2020 16:00:00 -9,8 -12,8 3 2 8 4 Z 986,8 50 0,0
13.01.2020 15:00:00 -11,9 -15,3 2 1 5 3 Z 987,2 50 0,0
13.01.2020 14:00:00 -11,8 -14,9 0 0 5 3 N 987,4 5 0,0
13.01.2020 13:00:00 -12,4 -15,6 3 1 5 3 ZZO 987,2 3,2 0,0
13.01.2020 12:00:00 -10,8 -13,4 2 1 8 4 Z 987,6 43 0,0
13.01.2020 11:00:00 -10,9 -13,7 3 2 5 3 Z 987,7 44 0,0
13.01.2020 10:00:00 -13,4 -15,5 3 1 5 3 Z 988,1 37 0,0
13.01.2020 09:00:00 -14,2 -15,6 0 0 6 3 N 988,0 28 0,0
13.01.2020 08:00:00 -14,7 -18,5 0 0 10 5 N 988,1 24 0,0
13.01.2020 07:00:00 -12,5 -15,2 4 2 8 4 ZZW 987,6 19 0,0
13.01.2020 06:00:00 -12,0 -14,1 2 1 7 4 Z 987,4 18 0,0
13.01.2020 05:00:00 -13,9 -16,0 3 1 9 5 ZZO 987,4 19 0,0
13.01.2020 04:00:00 -12,6 -15,2 0 0 6 3 N 987,7 14 0,0
13.01.2020 03:00:00 -12,6 -14,6 5 3 7 4 Z 987,9 16 0,0
13.01.2020 02:00:00 -13,9 -16,4 2 1 4 2 ZZO 987,6 15 0,0
13.01.2020 01:00:00 -11,5 -14,3 0 0 8 4 N 987,7 15 0,0
13.01.2020 00:00:00 -10,1 -12,3 2 1 5 3 Z 987,4 15 0,0
12.01.2020 23:00:00 -12,3 -15,0 0 0 8 4 N 987,3 16 0,0
12.01.2020 22:00:00 -12,5 -15,4 4 2 6 3 Z 987,1 15 0,0
12.01.2020 21:00:00 -13,1 -15,8 0 0 9 5 N 986,7 14 0,0
12.01.2020 20:00:00 -10,2 -12,1 0 0 7 4 N 986,0 14 0,0
12.01.2020 19:00:00 -8,0 -10,1 5 3 7 4 ZZW 985,1 13 0,0
12.01.2020 18:00:00 -7,1 -9,6 2 1 9 5 NW 984,3 13 0,0
12.01.2020 17:00:00 -5,6 -8,7 3 1 13 7 ZW 983,8 14 0,0
12.01.2020 16:00:00 -3,3 -6,1 5 3 17 9 W 983,1 14 0,0
12.01.2020 15:00:00 -2,7 -5,7 5 3 16 9 W 982,6 22 0,0
12.01.2020 14:00:00 -2,4 -5,1 8 4 16 9 W 981,8 42 0,0
12.01.2020 13:00:00 -2,9 -5,2 3 2 12 7 ZW 980,7 48 0,0
12.01.2020 12:00:00 -4,4 -6,4 5 3 9 5 ZW 979,8 50 0,0
12.01.2020 11:00:00 -7,1 -9,6 3 2 8 4 ZZW 979,0 50 0,0
12.01.2020 10:00:00 -7,4 -9,9 3 2 8 4 ZW 978,2 50 0,0
12.01.2020 09:00:00 -9,5 -12,9 0 0 5 3 N 978,0 50 0,0
12.01.2020 08:00:00 -9,1 -12,1 3 2 6 3 ZZW 977,3 50 0,0
12.01.2020 07:00:00 -8,3 -11,0 0 0 4 2 N 976,9 50 0,0
12.01.2020 06:00:00 -6,9 -9,1 0 0 9 5 N 976,6 50 0,0
12.01.2020 05:00:00 -8,1 -10,3 4 2 7 4 ZZW 976,5 50 0,0
12.01.2020 04:00:00 -6,9 -8,4 4 2 6 4 ZZW 976,5 50 0,0
12.01.2020 03:00:00 -5,7 -7,5 4 2 11 6 Z 976,8 50 0,0
12.01.2020 02:00:00 -5,1 -6,8 4 2 10 5 ZZW 977,1 46 0,1
12.01.2020 01:00:00 -4,1 -5,6 5 3 10 6 ZZW 977,7 2,1 0,5
12.01.2020 00:00:00 -4,1 -5,6 5 3 13 7 Z 978,0 2,7 0,1
11.01.2020 23:00:00 -4,0 -5,4 8 4 15 8 Z 978,3 4,0 0,3

tt = temperatuur
td = dauwpunt
ff = windsnelheid
fx = windstoten
dd = windrichting
ppp = luchtdruk
vv = zicht
rr = neerslag

Weerstations in de omgeving